Temperature
22 20 19 20 20 21 21 21 20 21 22 21 20 19 19 20 20 19 19 20 20 20 20 20 19 19 19 18 18 18 18 17 17 17 17 16 16 16 16 16 16 16 16 15
20 20 21 22 22 22 21 21 20 21 22 21 20 19 19 19 19 19 19 19 19 19 19 19 19 19 19 18 18 18 18 17 17 17 17 16 16 16 16 16 16 16 15 15
20 21 23 23 22 22 22 21 21 21 21 21 20 19 19 19 19 19 20 20 19 19 19 19 19 19 18 18 18 18 17 17 17 17 16 16 16 16 16 16 15 15 15 15
21 22 23 22 22 22 21 22 22 21 20 18 20 17 18 18 18 18 18 19 19 19 19 19 19 19 18 18 18 18 17 17 17 16 16 16 16 16 16 16 15 15 15 15
21 22 22 22 22 22 22 22 22 21 20 18 18 18 17 17 17 17 17 18 18 19 19 19 19 18 18 18 18 17 17 17 17 17 16 16 16 16 16 15 15 15 15 15
21 22 22 22 23 23 22 21 20 18 17 18 19 18 17 16 17 17 17 18 18 18 19 19 18 18 18 18 17 17 17 17 17 16 16 16 16 16 16 15 15 15 15 15
20 21 22 23 22 21 20 18 17 17 16 17 18 18 17 17 18 17 17 17 18 18 18 18 18 18 18 17 17 17 17 17 16 16 16 16 16 16 16 15 15 15 15 15
19 19 21 22 21 20 20 18 17 17 17 17 18 18 17 18 18 18 18 18 18 17 18 18 18 18 17 17 17 17 17 16 16 16 16 16 16 16 15 15 15 15 15 15
18 18 21 22 22 21 20 18 18 17 17 17 17 17 18 18 17 17 17 17 17 17 17 18 18 17 17 17 17 17 16 16 16 16 16 16 15 15 15 15 15 15 15 15
19 18 19 20 21 21 20 19 16 17 17 16 17 17 16 17 17 16 16 16 17 17 17 17 17 17 17 17 17 16 16 16 16 16 16 16 15 15 15 15 15 15 15 15
18 18 18 19 19 19 19 19 17 15 15 16 16 16 18 17 16 16 16 17 17 17 17 17 17 17 17 17 16 16 16 16 16 15 15 15 15 15 15 15 15 15 15 15
17 16 16 17 19 19 19 18 17 16 16 15 15 15 17 17 17 17 16 17 17 17 17 17 17 17 16 16 16 16 16 15 15 15 15 15 15 15 15 15 14 14 14 14
17 15 16 16 17 18 18 18 17 16 15 14 15 16 17 16 16 17 17 17 16 17 17 16 16 16 16 16 16 16 15 15 15 15 15 14 14 14 14 14 14 14 14 14
17 15 15 16 16 17 17 18 18 16 14 14 15 15 16 16 16 16 16 17 16 16 16 16 16 16 16 16 15 15 15 15 15 15 15 14 14 14 14 14 14 14 14 14
16 15 16 16 17 17 17 17 17 16 15 15 15 15 16 15 16 16 16 16 16 16 16 16 16 15 15 15 15 15 15 15 14 14 14 14 14 14 14 14 13 13 13 13
14 15 16 16 17 17 17 17 17 17 16 16 16 16 15 16 16 16 16 16 15 15 15 16 15 15 15 15 15 15 15 14 14 14 14 14 14 14 13 13 13 13 13 13
13 14 14 14 15 16 15 16 16 16 16 16 15 15 15 15 15 15 15 15 15 15 15 15 15 15 15 15 15 15 14 14 14 14 14 13 13 13 13 13 13 13 13 13
14 13 12 13 15 15 15 16 16 16 16 15 15 15 15 15 15 15 16 15 15 15 15 15 15 15 15 14 14 14 14 14 14 13 13 13 13 13 13 12 12 12 12 12
13 13 12 12 13 14 15 16 16 15 15 15 14 14 15 15 15 14 15 15 15 15 15 15 15 14 14 14 14 14 14 13 13 13 13 13 13 13 12 12 12 12 12 12
13 12 12 12 13 13 14 15 16 15 14 14 14 14 14 14 12 12 14 15 15 14 15 14 14 14 14 14 14 14 14 13 13 13 13 12 12 12 12 12 12 12 12 12
13 12 12 11 12 12 13 15 15 14 13 14 14 14 14 13 13 14 14 14 14 14 14 14 14 14 14 14 13 13 13 13 13 13 12 12 12 12 12 12 12 12 12 11
12 12 11 11 12 12 14 14 13 13 14 14 14 14 14 14 14 14 13 13 13 14 14 14 13 13 13 13 13 13 13 13 12 12 12 12 12 12 12 12 11 11 11 11
11 11 11 11 12 13 14 14 14 14 14 14 14 14 14 13 13 13 13 13 13 13 13 13 13 13 13 12 12 12 12 12 12 12 11 11 11 11 11 11 11 11 11 11
11 11 11 11 11 12 13 14 14 14 14 14 13 13 13 13 13 12 12 12 13 13 13 12 12 12 12 12 12 12 12 11 11 11 11 11 11 11 11 11 11 11 11 11
11 11 10 10 11 12 13 13 13 13 13 13 13 13 13 13 12 12 12 12 12 12 12 12 12 12 12 12 11 11 11 11 11 11 11 11 11 11 10 10 10 10 10 10
10 10 10 10 11 11 12 12 12 12 12 12 12 12 12 12 12 12 12 12 12 12 12 11 11 11 11 11 11 11 11 10 10 10 10 10 10 10 10 10 10 10 10 10
Wind_Speed
1 3 3 7 8 6 4 2 3 5 4 3 4 4 5 5 5 6 6 6 7 8 6 6 7 7 6 6 6 6 6 5 5 4 3 3 2 1 1 2 4 6 6 7
4 3 9 7 4 3 2 2 3 4 2 3 3 4 4 5 6 8 9 8 8 7 5 5 5 5 6 7 6 6 6 5 5 4 3 3 3 1 1 2 3 5 6 6
5 6 4 2 3 2 1 3 3 3 3 2 2 3 2 2 2 2 5 6 7 9 9 7 6 6 6 6 7 7 6 6 5 4 3 3 3 3 2 2 1 1 4 5
3 4 1 1 2 2 3 4 3 1 1 3 1 2 5 3 1 1 2 3 5 7 8 7 7 6 6 6 6 7 6 6 5 5 6 6 4 3 2 2 1 0 2 4
4 3 1 2 3 3 4 4 2 2 1 1 1 2 5 1 2 3 3 3 4 5 8 9 8 8 6 6 6 6 6 5 5 6 6 6 4 2 1 1 2 1 0 2
5 3 3 4 2 1 0 4 5 5 4 2 4 4 5 3 6 5 4 3 3 4 5 7 7 6 5 6 6 6 6 4 4 6 6 6 5 4 4 3 2 1 1 1
5 5 2 1 2 4 5 6 4 5 3 5 3 3 5 5 5 6 6 5 3 4 4 6 7 7 6 6 6 6 7 5 5 6 5 5 5 6 5 4 3 2 1 1
1 5 4 1 3 3 1 7 5 3 4 5 3 2 4 2 2 4 5 5 3 4 3 5 7 7 8 7 7 7 7 6 5 5 5 4 4 4 3 3 3 3 2 2
1 5 5 3 1 4 1 2 5 5 1 2 3 2 4 3 2 3 3 4 4 4 4 4 5 7 7 7 6 7 7 6 5 5 5 4 4 3 3 3 2 2 2 2
4 3 5 4 3 2 3 3 4 3 1 3 4 3 4 3 3 2 3 4 4 3 3 3 3 5 6 6 5 5 6 6 5 5 4 4 3 3 3 3 2 2 1 1
3 2 5 3 1 3 0 1 3 3 4 4 3 5 4 7 6 5 5 5 5 4 4 3 4 4 5 5 5 5 5 5 5 5 4 4 3 3 3 3 2 2 2 2
2 4 2 6 6 3 3 3 4 3 3 4 3 6 4 4 4 4 4 3 3 4 4 3 3 4 4 5 5 5 5 5 5 5 5 4 3 3 2 2 2 2 2 2
2 4 2 6 6 4 1 1 2 3 2 3 3 6 3 1 1 2 3 3 2 2 2 2 2 3 4 4 5 5 5 5 5 5 5 4 3 3 2 2 2 2 3 3
3 3 5 7 6 4 4 5 2 2 3 4 6 7 6 4 3 3 3 3 2 3 4 3 3 3 4 4 5 5 4 4 4 4 5 5 4 4 3 3 2 3 3 3
4 2 4 6 6 5 6 7 6 5 7 7 8 8 9 7 7 5 4 3 3 2 3 4 3 3 3 3 4 4 4 4 4 4 4 5 5 4 3 3 2 2 2 3
3 1 2 5 5 4 6 7 7 7 6 6 6 7 7 5 3 3 4 4 3 2 3 3 2 2 2 3 4 4 4 4 4 5 5 4 4 4 3 3 3 3 2 2
1 2 0 5 6 4 5 5 4 3 3 4 6 6 3 1 3 5 5 4 3 2 2 2 3 3 3 4 4 4 5 5 5 5 4 4 4 4 4 4 3 3 3 3
4 3 2 2 3 4 6 3 2 2 2 2 3 3 3 3 3 2 4 4 3 2 2 2 3 3 3 3 3 3 4 4 5 5 5 5 4 5 4 4 4 3 3 3
6 6 3 2 2 6 6 4 2 1 2 3 1 1 1 2 3 3 1 2 3 3 3 4 4 3 3 3 3 3 3 3 4 4 5 5 5 5 5 5 5 3 3 3
3 4 4 3 3 6 6 5 3 2 2 3 1 2 2 2 1 4 3 0 0 1 1 2 2 2 2 2 3 3 3 4 4 4 4 5 5 6 6 6 5 3 4 4
2 1 3 4 5 6 6 5 2 2 5 3 1 1 1 2 4 4 2 1 1 2 2 2 2 2 3 2 3 3 3 4 5 4 3 4 4 5 5 5 4 3 3 3
4 3 3 4 4 6 4 1 2 4 3 1 1 1 1 1 1 1 1 1 2 2 1 1 1 1 1 2 3 3 4 4 3 3 3 4 4 4 4 4 3 3 4 3
3 5 4 6 6 4 1 2 3 3 2 2 2 2 2 1 1 2 2 2 2 1 1 1 2 1 1 2 3 4 4 2 2 3 3 3 3 3 3 4 4 3 3 3
4 1 1 2 4 3 3 2 2 2 3 3 3 3 2 2 2 2 2 2 1 1 1 0 1 1 2 2 3 4 3 3 2 2 3 3 3 2 2 2 3 3 4 4
5 1 1 3 4 4 4 3 3 2 0 1 1 2 2 2 2 2 2 2 2 2 1 1 1 2 3 3 2 2 2 3 3 3 3 3 3 3 3 3 3 4 5 6
5 5 5 7 6 5 7 6 4 2 2 1 1 1 1 2 2 2 2 2 2 1 1 1 2 2 3 2 3 3 3 4 4 3 3 3 3 3 3 3 2 2 3 5
Wind_Direction
355 88 218 227 215 216 213 228 259 263 247 177 202 224 228 211 191 186 181 187 186 190 189 174 169 161 154 152 147 146 142 145 138 131 129 124 124 109 89 118 123 124 129 127
34 253 239 231 239 225 236 244 275 287 260 182 209 244 228 201 199 192 185 187 187 178 165 170 165 158 158 157 154 147 148 151 157 157 155 151 142 132 130 118 111 127 133 137
196 244 253 231 254 245 242 208 235 252 334 4 88 334 279 268 220 190 184 185 182 174 174 173 158 157 159 158 160 158 155 154 156 146 120 102 77 57 58 75 88 125 140 143
247 268 265 235 252 188 248 244 233 231 42 280 147 264 268 240 265 205 197 185 184 180 174 170 164 164 166 170 165 158 157 154 146 136 137 141 143 151 182 177 164 112 133 142
267 256 234 242 240 191 228 257 257 246 195 315 298 188 277 191 229 242 225 210 201 182 176 175 174 175 170 161 155 154 152 145 141 138 144 144 144 161 151 119 102 81 77 133
256 265 210 216 244 213 169 24 18 39 71 295 240 176 263 221 213 211 210 204 194 175 176 174 174 166 157 149 145 144 142 134 136 137 141 145 151 151 133 123 122 110 73 74
322 321 314 64 28 360 63 70 21 358 5 261 260 167 243 238 203 187 183 188 189 160 160 161 160 160 159 153 150 147 144 140 139 138 144 150 152 151 153 159 164 154 132 125
344 298 293 292 184 202 185 136 152 213 244 281 332 215 256 259 184 158 158 160 142 138 145 162 167 166 164 162 159 151 150 150 146 144 151 147 147 144 151 163 160 164 179 190
179 270 296 289 239 150 142 188 180 159 258 278 290 302 321 20 69 103 134 140 156 160 152 158 165 162 160 161 163 161 156 151 152 151 148 142 142 141 156 165 154 163 178 174
158 258 291 304 10 4 153 156 82 99 185 275 288 260 239 226 214 181 173 179 185 165 156 154 161 162 164 167 158 155 157 162 160 153 154 149 155 154 149 147 157 173 189 151
127 171 303 348 256 244 345 68 111 137 168 179 256 270 234 195 190 184 200 200 187 171 170 176 173 168 155 144 154 158 156 155 156 156 152 146 156 150 140 142 165 171 155 138
110 129 260 270 271 238 182 184 147 168 245 192 198 264 291 178 179 179 200 207 190 182 181 179 171 154 151 154 164 161 159 161 166 165 156 154 154 146 142 155 171 161 154 143
87 106 18 336 335 355 358 224 167 152 151 190 204 260 309 36 173 206 199 195 202 183 163 154 155 164 171 172 168 161 162 169 168 163 160 155 162 161 162 176 176 153 151 150
102 125 176 215 238 261 282 289 260 153 193 230 230 245 283 276 242 241 213 193 187 185 176 167 178 192 192 181 172 162 166 167 160 156 163 169 179 183 185 184 175 167 155 154
93 181 233 244 251 251 265 269 256 226 214 215 240 236 246 237 224 216 198 178 172 184 181 177 191 202 192 176 176 171 177 173 161 158 172 187 188 182 175 174 175 169 158 162
77 187 299 295 285 287 284 276 257 243 231 229 229 246 251 239 214 179 175 163 171 197 200 187 194 211 203 188 189 184 184 181 165 167 186 188 176 172 176 178 166 158 163 171
110 131 59 280 299 334 290 265 235 224 240 204 225 242 244 209 183 184 178 163 167 184 197 189 203 212 213 209 195 190 191 178 168 178 185 183 179 174 174 174 165 174 181 173
172 153 161 266 348 265 255 286 230 179 279 244 212 211 188 187 190 190 171 173 178 188 192 199 211 226 228 212 195 187 179 176 178 188 196 190 181 184 177 167 174 182 180 178
176 161 158 165 239 273 287 302 276 206 311 310 180 139 101 100 59 349 272 178 187 189 195 205 207 209 209 202 195 170 172 181 184 196 200 194 185 184 181 183 190 192 184 193
105 129 147 164 207 243 258 287 301 102 276 304 133 147 167 96 93 272 290 290 215 234 199 202 214 190 191 206 179 162 185 186 196 205 208 199 188 187 193 197 198 198 189 201
22 70 174 198 223 256 267 293 26 150 248 283 233 179 148 182 214 239 265 295 273 252 232 208 188 190 210 197 162 168 194 212 217 207 201 194 193 197 199 198 195 191 191 191
199 196 209 182 209 253 284 53 159 223 252 271 273 218 189 203 232 254 242 274 284 287 271 226 181 210 218 184 166 181 218 229 212 194 194 194 198 203 201 190 196 195 189 193
209 201 200 197 217 246 279 194 222 200 216 257 248 231 202 208 242 252 264 266 267 262 270 226 173 203 242 202 179 200 234 225 183 177 191 201 202 204 196 191 193 196 194 196
286 276 163 260 259 276 292 314 293 251 236 240 218 214 202 210 230 250 261 273 273 275 275 190 128 179 255 250 218 214 226 208 182 186 201 195 192 205 208 205 198 196 201 202
249 286 263 263 274 307 300 299 287 300 2 108 185 213 216 204 228 242 254 266 269 277 260 187 186 215 245 254 250 236 210 186 189 205 214 206 200 201 208 215 213 210 214 207
222 210 212 239 237 237 262 270 277 273 260 236 234 313 291 218 215 231 247 253 249 249 241 222 226 233 253 254 248 247 216 186 185 210 221 213 205 207 206 211 259 272 237 236
Height
1514 1519 1523 1520 1517 1518 1519 1522 1524 1519 1511 1514 1518 1518 1515 1514 1514 1515 1516 1517 1518 1520 1522 1523 1524 1526 1527 1528 1529 1529 1530 1531 1532 1532 1533 1534 1534 1535 1535 1535 1536 1536 1536 1536
1519 1521 1513 1510 1511 1513 1516 1521 1522 1517 1510 1513 1517 1517 1514 1513 1513 1513 1514 1515 1516 1518 1520 1522 1523 1524 1525 1526 1527 1528 1529 1530 1531 1532 1532 1533 1534 1535 1535 1536 1536 1536 1536 1537
1520 1515 1508 1510 1513 1515 1516 1519 1519 1518 1514 1512 1517 1522 1518 1514 1513 1513 1513 1513 1514 1516 1517 1519 1521 1522 1524 1525 1526 1527 1528 1529 1530 1531 1532 1533 1534 1535 1535 1536 1536 1536 1537 1537
1515 1509 1509 1511 1512 1513 1519 1511 1511 1514 1521 1528 1522 1536 1522 1517 1515 1514 1513 1513 1513 1514 1516 1517 1519 1520 1521 1523 1524 1525 1526 1528 1529 1530 1531 1532 1532 1533 1534 1535 1536 1536 1537 1537
1515 1509 1510 1512 1510 1508 1511 1507 1509 1512 1518 1526 1524 1532 1527 1518 1518 1515 1513 1513 1512 1513 1514 1515 1516 1518 1519 1521 1522 1524 1525 1526 1528 1529 1530 1531 1532 1533 1534 1535 1535 1536 1536 1537
1511 1507 1507 1507 1505 1505 1506 1509 1513 1519 1525 1536 1525 1531 1529 1521 1515 1513 1512 1512 1511 1512 1513 1514 1515 1517 1518 1519 1521 1522 1524 1525 1526 1528 1529 1530 1531 1532 1533 1534 1534 1535 1535 1536
1516 1510 1506 1505 1508 1508 1510 1525 1540 1540 1545 1539 1521 1526 1525 1511 1508 1508 1509 1510 1510 1510 1511 1512 1513 1514 1516 1518 1519 1521 1522 1523 1525 1527 1528 1529 1530 1531 1532 1532 1533 1534 1534 1535
1527 1525 1510 1506 1508 1512 1513 1522 1541 1548 1547 1538 1524 1527 1519 1507 1506 1507 1508 1509 1509 1509 1510 1511 1512 1513 1514 1516 1518 1519 1521 1522 1524 1525 1526 1528 1529 1530 1530 1531 1532 1533 1533 1534
1527 1525 1508 1505 1504 1507 1514 1520 1520 1533 1534 1539 1532 1524 1515 1507 1507 1507 1508 1509 1509 1509 1509 1510 1511 1512 1513 1515 1516 1518 1519 1521 1522 1524 1525 1526 1527 1528 1529 1530 1531 1531 1532 1533
1517 1523 1513 1507 1505 1505 1508 1513 1525 1532 1541 1545 1535 1529 1525 1514 1511 1509 1509 1509 1509 1508 1509 1509 1510 1511 1512 1514 1515 1517 1518 1520 1521 1523 1524 1525 1526 1527 1528 1529 1530 1530 1531 1531
1514 1523 1520 1513 1513 1514 1512 1515 1521 1531 1535 1543 1543 1534 1510 1510 1509 1509 1509 1508 1508 1508 1508 1509 1509 1510 1511 1513 1514 1516 1517 1518 1520 1521 1522 1523 1524 1526 1526 1527 1528 1528 1529 1529
1514 1523 1528 1519 1509 1506 1509 1513 1521 1533 1534 1534 1539 1533 1506 1505 1506 1507 1508 1508 1507 1508 1508 1508 1508 1510 1511 1511 1513 1514 1515 1516 1518 1519 1520 1521 1523 1524 1524 1525 1526 1526 1527 1528
1514 1524 1533 1529 1522 1513 1512 1511 1515 1521 1529 1535 1537 1529 1506 1505 1505 1506 1507 1507 1507 1507 1507 1507 1508 1508 1509 1510 1511 1512 1513 1514 1516 1517 1518 1519 1520 1522 1522 1523 1524 1524 1525 1526
1511 1522 1529 1533 1526 1518 1516 1513 1512 1519 1530 1530 1526 1520 1510 1507 1506 1505 1506 1506 1506 1506 1506 1506 1506 1507 1507 1508 1509 1510 1511 1512 1513 1515 1516 1516 1518 1519 1520 1521 1522 1522 1523 1524
1512 1521 1519 1518 1514 1513 1512 1511 1510 1514 1517 1522 1517 1513 1508 1505 1503 1503 1503 1504 1504 1505 1505 1504 1504 1505 1505 1506 1507 1508 1509 1510 1511 1512 1513 1514 1516 1517 1518 1518 1519 1520 1521 1521
1514 1519 1518 1518 1512 1511 1511 1507 1506 1507 1508 1510 1509 1509 1502 1501 1501 1501 1501 1502 1502 1503 1503 1503 1503 1503 1503 1504 1504 1505 1506 1507 1508 1509 1510 1512 1513 1514 1515 1516 1517 1517 1518 1519
1517 1520 1523 1524 1515 1512 1515 1507 1504 1504 1503 1504 1508 1505 1500 1500 1500 1499 1499 1500 1500 1501 1501 1502 1502 1502 1502 1502 1502 1502 1503 1504 1505 1506 1507 1509 1510 1511 1512 1513 1514 1515 1515 1516
1515 1519 1525 1526 1520 1524 1513 1501 1500 1501 1501 1500 1499 1498 1498 1498 1498 1498 1498 1499 1499 1499 1500 1500 1501 1500 1500 1500 1500 1500 1501 1502 1502 1503 1504 1506 1507 1508 1510 1510 1511 1512 1513 1513
1508 1515 1523 1528 1526 1520 1508 1501 1500 1501 1503 1499 1499 1498 1498 1498 1498 1499 1498 1498 1498 1498 1498 1498 1498 1498 1498 1498 1498 1498 1499 1499 1500 1500 1501 1502 1504 1505 1506 1507 1508 1509 1510 1510
1507 1511 1520 1525 1525 1523 1509 1500 1497 1500 1505 1499 1498 1497 1497 1497 1501 1500 1497 1497 1496 1496 1496 1496 1496 1496 1496 1496 1496 1496 1496 1496 1496 1497 1498 1500 1501 1502 1504 1505 1505 1506 1507 1507
1514 1516 1520 1523 1523 1515 1503 1498 1498 1509 1507 1499 1497 1496 1496 1496 1497 1497 1495 1495 1495 1495 1495 1494 1494 1493 1493 1493 1493 1493 1493 1493 1494 1495 1496 1497 1498 1499 1501 1502 1503 1503 1504 1504
1515 1518 1519 1521 1521 1516 1499 1498 1502 1502 1498 1497 1496 1495 1495 1495 1494 1494 1493 1493 1492 1492 1491 1491 1491 1491 1491 1491 1491 1490 1490 1491 1492 1492 1493 1494 1495 1497 1497 1498 1499 1500 1500 1501
1511 1510 1510 1511 1510 1501 1498 1498 1497 1497 1496 1495 1495 1494 1494 1493 1492 1492 1491 1490 1490 1489 1489 1488 1488 1488 1489 1488 1488 1488 1488 1489 1489 1489 1490 1491 1492 1493 1494 1494 1495 1496 1496 1497
1507 1504 1505 1505 1501 1498 1497 1496 1495 1495 1494 1493 1492 1492 1492 1491 1490 1490 1489 1488 1487 1487 1486 1486 1486 1486 1486 1486 1486 1486 1486 1486 1486 1486 1487 1487 1488 1489 1489 1490 1491 1492 1492 1492
1505 1504 1504 1503 1499 1497 1495 1494 1493 1492 1492 1491 1491 1490 1489 1488 1488 1487 1486 1485 1485 1484 1484 1484 1484 1483 1483 1483 1483 1483 1483 1483 1483 1483 1484 1484 1484 1485 1485 1486 1487 1487 1488 1489
1500 1501 1502 1500 1496 1496 1493 1492 1492 1490 1489 1489 1488 1487 1487 1486 1485 1484 1484 1483 1483 1482 1482 1481 1481 1481 1481 1480 1480 1480 1480 1479 1479 1479 1480 1480 1481 1481 1481 1481 1482 1483 1484 1485